KE0ZOP Weather Reports


time (UTC)temp
C
wind
direction
speed
KPH
gust
KPH
rain 1hr
cm
rain 24hr
cm
rain mn
cm
humidity
%
barometer
mb
20260906164603 23 136 8.0 17.7 0.00 0.00 0.00 87 1020.9
20260906163109 22 125 11.3 17.7 0.00 0.00 0.00 87 1020.9
20260906161604 22 132 11.3 17.7 0.00 0.00 0.00 88 1021.1
20260906154606 22 146 8.0 16.1 0.00 0.00 0.00 89 1021.0
20260906153103 22 147 9.7 17.7 0.00 0.00 0.00 89 1021.0
20260906151604 21 127 9.7 17.7 0.00 0.00 0.00 90 1020.9
20260906150104 21 130 9.7 16.1 0.00 0.00 0.00 91 1020.9
20260906144608 21 80 4.8 12.9 0.00 0.00 0.00 93 1020.7
20260906143104 20 84 4.8 14.5 0.00 0.00 0.00 93 1020.7
20260906141613 20 116 12.9 20.9 0.00 0.00 0.00 94 1020.7
20260906134606 20 100 12.9 20.9 0.00 0.00 0.00 94 1020.5
20260906133110 20 84 14.5 22.5 0.00 0.00 0.00 94 1020.4
20260906131608 20 69 12.9 19.3 0.00 0.00 0.00 94 1020.3
20260906130110 20 92 8.0 19.3 0.00 0.00 0.00 94 1020.2
20260906124604 19 120 11.3 16.1 0.00 0.00 0.00 95 1020.2
20260906123107 19 94 6.4 14.5 0.00 0.00 0.00 95 1020.2
20260906121609 19 90 4.8 14.5 0.00 0.00 0.00 95 1020.1
20260906120105 19 79 6.4 16.1 0.00 0.00 0.00 95 1020.0
20260906114613 19 88 8.0 19.3 0.00 0.00 0.00 95 1019.8
20260906113101 19 96 9.7 19.3 0.00 0.00 0.00 95 1019.6
20260906111605 19 87 8.0 17.7 0.00 0.00 0.00 95 1019.6
20260906110105 20 92 9.7 16.1 0.00 0.00 0.00 95 1019.3
20260906104603 20 101 8.0 14.5 0.00 0.00 0.00 96 1019.4
20260906103105 19 107 8.0 14.5 0.00 0.00 0.00 97 1019.3
20260906101600 19 84 6.4 12.9 0.00 0.00 0.00 97 1019.0
20260906100056 19 82 8.0 16.1 0.00 0.00 0.00 97 1018.8
20260906094600 19 73 11.3 17.7 0.00 0.00 0.00 97 1018.4
20260906093106 19 87 8.0 14.5 0.00 0.00 0.00 97 1018.4
20260906091603 20 84 9.7 16.1 0.00 0.00 0.00 96 1018.3
20260906090108 20 90 9.7 16.1 0.00 0.00 0.00 96 1018.3
20260906084606 20 82 6.4 12.9 0.00 0.00 0.00 96 1018.1
20260906083103 20 77 6.4 16.1 0.00 0.00 0.00 96 1018.3
20260906081619 20 87 8.0 19.3 0.00 0.00 0.00 96 1018.2
20260906080107 20 111 9.7 16.1 0.00 0.00 0.00 96 1018.0
20260906074616 21 104 11.3 17.7 0.00 0.00 0.00 95 1018.4
20260906073102 21 73 11.3 19.3 0.00 0.00 0.00 95 1018.6
20260906071605 21 64 8.0 17.7 0.00 0.00 0.00 95 1018.8
20260906070100 21 74 9.7 19.3 0.00 0.00 0.00 94 1018.8
20260906064603 21 57 11.3 19.3 0.00 0.00 0.00 94 1018.9
20260906063103 21 61 9.7 19.3 0.00 0.00 0.00 94 1018.7
20260906061610 21 43 6.4 16.1 0.00 0.00 0.00 94 1019.0
20260906060112 21 56 9.7 17.7 0.00 0.00 0.00 94 1018.7
20260906054605 21 80 8.0 12.9 0.00 0.00 0.00 94 1018.6
20260906053102 22 58 4.8 11.3 0.00 0.00 0.00 94 1018.9
20260906051606 22 51 4.8 11.3 0.00 0.00 0.00 94 1018.5
20260906050113 22 54 6.4 11.3 0.00 0.00 0.00 94 1018.4
20260906044602 22 23 3.2 14.5 0.00 0.00 0.00 93 1018.6
20260906043102 22 55 0.0 6.4 0.00 0.00 0.00 93 1018.6
20260906041608 22 55 3.2 11.3 0.00 0.00 0.00 93 1018.4
20260906040107 22 38 3.2 9.7 0.00 0.00 0.00 93 1018.3
20260906034606 22 25 3.2 8.0 0.00 0.00 0.00 92 1018.2
20260906033105 22 24 3.2 6.4 0.00 0.00 0.00 93 1018.2
20260906031607 22 24 1.6 3.2 0.00 0.00 0.00 92 1018.1
20260906030106 22 24 1.6 6.4 0.00 0.00 0.00 92 1018.1
20260906024604 22 24 3.2 8.0 0.00 0.00 0.00 92 1018.0
20260906023105 23 24 4.8 9.7 0.00 0.00 0.00 92 1017.9
20260906021608 23 103 1.6 6.4 0.00 0.00 0.00 92 1017.6
20260906020106 23 103 3.2 6.4 0.00 0.00 0.00 91 1017.2
20260906014607 23 104 1.6 9.7 0.00 0.00 0.00 90 1017.0
20260906013104 23 104 3.2 9.7 0.00 0.00 0.00 89 1016.6
20260906011606 24 103 1.6 11.3 0.00 0.00 0.00 89 1016.6
20260906010106 24 101 4.8 16.1 0.00 0.00 0.00 88 1016.6
20260906004608 25 80 11.3 20.9 0.00 0.00 0.00 88 1016.6
20260906003108 25 83 14.5 22.5 0.00 0.00 0.00 87 1016.5
20260906001610 25 78 6.4 14.5 0.00 0.00 0.00 86 1016.4
20260906000104 26 63 6.4 14.5 0.00 0.00 0.00 85 1016.4
20260905234601 26 63 12.9 22.5 0.00 0.00 0.00 84 1016.3
20260905233107 26 93 14.5 25.7 0.00 0.00 0.00 83 1016.2
20260905231604 27 79 14.5 24.1 0.00 0.00 0.00 81 1016.4
20260905230108 27 66 16.1 25.7 0.00 0.00 0.00 80 1016.4
20260905224609 27 58 19.3 27.4 0.00 0.00 0.00 81 1016.1
20260905223107 27 72 16.1 25.7 0.00 0.00 0.00 82 1016.2
20260905221608 27 53 12.9 27.4 0.00 0.00 0.00 80 1016.4
20260905220110 27 62 12.9 25.7 0.00 0.00 0.00 82 1016.3
20260905214603 27 57 11.3 24.1 0.00 0.00 0.00 80 1016.3
20260905213107 27 5 11.3 24.1 0.00 0.00 0.00 81 1016.4
20260905211630 28 55 12.9 24.1 0.00 0.00 0.00 81 1016.4
20260905210124 27 34 14.5 24.1 0.00 0.00 0.00 82 1016.6
20260905204608 28 51 14.5 22.5 0.00 0.00 0.00 82 1016.6
20260905203118 28 36 12.9 22.5 0.00 0.00 0.00 83 1016.5
20260905201607 29 43 12.9 25.7 0.00 0.00 0.00 80 1016.4
20260905200104 30 47 9.7 25.7 0.00 0.00 0.00 81 1016.3
20260905194605 30 25 8.0 24.1 0.00 0.00 0.00 78 1016.6
20260905193100 30 54 8.0 20.9 0.00 0.00 0.00 81 1016.7
20260905191607 29 52 8.0 20.9 0.00 0.00 0.00 81 1017.1
20260905190107 30 32 8.0 20.9 0.00 0.00 0.00 80 1017.0
20260905184607 30 39 8.0 19.3 0.00 0.00 0.00 80 1016.9
20260905183103 30 24 8.0 19.3 0.00 0.00 0.00 80 1016.9
20260905181613 30 24 9.7 22.5 0.00 0.00 0.00 80 1016.9
20260905180109 29 15 8.0 19.3 0.00 0.00 0.00 82 1016.9
20260905174604 29 60 9.7 22.5 0.00 0.00 0.00 82 1016.8
20260905173103 29 61 14.5 24.1 0.00 0.00 0.00 81 1016.8
20260905171603 29 42 8.0 20.9 0.00 0.00 0.00 82 1017.0
20260905170107 30 26 14.5 22.5 0.00 0.00 0.00 81 1017.0